Location: Rounton
(54.4000°N, 1.3500°W)
Time: 05:56:35
(UTC+00:00)

A-11 Canister half - Pass Details

Date: 08 December 2021
Orbit: 1516 x 1684 km, 47.2° (Epoch: 21 January)

Event Time Altitude Azimuth Distance (km) Brightness Sun altitude
Rises 13:58:57 0° 282° (WNW) 4,905 11.9 8.5°
Reaches altitude 10° 14:05:26 10° 252° (WSW) 3,937 12.0 8.1°
Maximum altitude 14:08:01 11° 237° (WSW) 3,841 12.4 7.9°
Drops below altitude 10° 14:10:35 10° 222° (SW) 3,942 13.4 7.7°
Sets 14:17:09 0° 192° (SSW) 4,924 13.2 7.2°
